Location: Marcé
(47.5801°N, 0.3280°W)
Time: 04:15:09
(UTC+01:00)

Explorer 11/Cluster Stage 4 - Pass Details

Date: 01 December 2021
Orbit: 467 x 1255 km, 28.8° (Epoch: 26 January)

Event Time Altitude Azimuth Distance (km) Brightness Sun altitude
Rises 06:41:34 0° 242° (WSW) 4,043 - -17.4°
Exits shadow 06:43:41 - 233° (SW) 3,513 9.5 -17.0°
Reaches altitude 10° 06:45:19 10° 225° (SW) 3,160 9.4 -16.8°
Maximum altitude 06:50:29 19° 185° (S) 2,616 9.3 -15.9°
Drops below altitude 10° 06:55:43 10° 145° (SE) 3,212 10.5 -15.1°
Sets 06:59:35 0° 129° (SE) 4,133 11.6 -14.4°
